カタログに戻る

STARLINK-3089

運用中通信VLEO
NORAD 49166·PAYLOAD·🇺🇸 United States

打ち上げ Sep 14, 2021 から Vandenberg Space Force Base

Loading…

次のパス (今後24時間)

TLE

最新Source: CelesTrak SupGP

元期: Sep 15, 2026, 01:35 UTC

1 49166C 21082AN  26258.06645833  .00016411  00000+0  14043-2 0  2581
2 49166  70.0016 158.3590 0002918 272.7391  33.1610 14.97514500    15

AllMySatでSTARLINK-3089をリアルタイム追跡

Download on the App Store